Weather in Muslyumovo

Russia / Chelyabinsk Oblast     55°36′17″N   61°37′31″E
temp.,
°C
wind,
m/s
gust,
m/s
humid.,
%
clouds,
%
prec.,
mm/h
press.,
hPa
HPBL,
m
16 january, sun
sun1623:00−2s81789100 0.8 982867
02:00−2ssw101780100 0.0 985938
05:00−3ssw91776100 0.0 987733
08:00−5ssw71681100 0.0 988568
11:00−5sse2897100 0.1 989285
14:00−2ssw3595100 0.8 986436
17:00−7nw71194100 1.2 987403
20:00−11wnw71391100 0.1 989503
17 january, mon
mon1723:00−12w6128398 0.3 992548
02:00−13wsw61282100 0.0 995602
05:00−12wsw6138299 0.0 998604
08:00−12wsw6128197 0.0 1000636
11:00−11wsw71381100 0.0 1003841
14:00−9wsw71380100 0.0 1005820
17:00−11wsw5108373 0.0 1009251
20:00−15sw410885 0.0 1010135
18 january, tue
tue1823:00−15ssw5128690 0.0 1011174
02:00−12ssw5128689 0.0 1012233
05:00−10ssw51187100 0.0 1013245
08:00−11ssw4108974 0.0 1014195
11:00−12ssw498931 0.0 1015154
14:00−10ssw4987100 0.0 1016212
17:00−12ssw499152 0.0 1017134
20:00−13ssw499119 0.0 1018124
19 january, wed
wed1923:00−12ssw4891100 0.0 1018109
02:00−11sw3890100 0.0 1019109
05:00−9sw3589100 0.0 102082
08:00−9sw368970 0.0 102175
11:00−8sw3589100 0.0 102284
14:00−4wsw3789100 0.0 1022215
17:00−6sw2492100 0.0 102445
20:00−12wsw2296100 0.0 102613
20 january, thu
thu2023:00−14wsw2297100 0.0 102712
02:00−15wsw2297100 0.0 102810
05:00−14sw1197100 0.0 102810
08:00−16s229884 0.0 10299
11:00−13sse229593 0.0 103054
14:00−9sse2594100 0.0 1029133
17:00−13sse2297100 0.0 102923
20:00−15s2297100 0.0 102936